Dauntless Aviation
Greetings, Guest! To participate, [sign up for a free account] or [log in]
Airports Europe France
LFBD
BOD

Merignac

Bordeaux, FRANCE

Airport Info
Edit

Location

Latitude / Longitude: 44°49'41"N / 0°42'56"W
  44°49.698'N / 0°42.936'W
  44.8283 / -0.7156

Nearby radio navigation aids

BD BORDEAUX NDB. 228.2° 9.2nm from BD to field.
BDX BORDEAUX VORTAC on field.
BE BORDEAUX NDB. 262.1° 13.8nm from BE to field.
NB BORDEAUX NDB. 202.9° 20.4nm from NB to field.

Runway Information

Runway 05 /23

Dimensions: 10171 x 148 ft.
Surface: ASP
 
Runway 05
Runway 23
Latitude: 44.819103 44.838694
Longitude: -0.728983 -0.701
Elevation: 160 ft. 160 ft.
Runway true heading: 42.9 222.9
 

Runway 11 /29

Dimensions: 7923 x 148 ft.
Surface: ASP
 
Runway 11
Runway 29
Latitude: 44.831567 44.825411
Longitude: -0.729242 -0.699897
Elevation: 153 ft. 153 ft.
Runway true heading: 103.9 283.9
 

Instrument Procedures

Departure Procedures

  Arrival and Departure

IAPs (Instrument Approach Procedures)

  Assorted Information for LFBD
  Instrument Approach Chart
  Visual Approach Chart
  Visual Approach Chart (Helicopter)
Satellite photo at:
Airport distance calculator
From:
Weather Reports

METAR

LFBD

LFBD 261700Z AUTO 31009KT 290V350 9999 NSC 27/16 Q1016
LFBC
25.4nm S
LFBC 261700Z AUTO 31009KT 250V340 9999 NSC 26/16 Q1016

TAF

LFBD
TAF LFBD 261100Z 2612/2718 27008KT 9999 SCT030 BECMG 2614/2616 CAVOK BECMG 2623/2702 VRB02KT 3000 BR PROB40 TEMPO 2702/2708 0100 FG VV/// BECMG 2708/2710 9999 NSW SCT020 BECMG 2711/2714 32012KT CAVOK
LFBC
25.4nm S
TAF LFBC 261100Z 2612/2712 25008KT CAVOK PROB30 TEMPO 2700/2706 0600 BCFG
Safelog

 

Dauntless Aviation

© 2007-2014 Dauntless Aviation, all rights reserved
Information provided via PilotNav comes from a variety of official and unofficial data sources. As errors are possible, do not use PilotNav for primary flight planning purposes. Verify any information that you receive via PilotNav with current and canonical charts and other official documents. The material in this database is subject to database copyrights held by Dauntless Aviation and may not be copied without the express permission of Dauntless Aviation - licenses for use of part of all of this data are available for purchase; enquire via the Dauntless Aviation helpdesk. A number of mechanisms and markers exist in the database to protect against and identify infringement / copyright. Automated queries against this website are stictly prohibited, and all activity is logged and analyzed.